Year,Month,Day,Hour,Minute,Value (Times are PST for temperature in C)
2019,05,22,00,00,9.80
2019,05,22,00,01,9.80
2019,05,22,00,02,9.70
2019,05,22,00,03,9.70
2019,05,22,00,04,9.70
2019,05,22,00,05,9.70
2019,05,22,00,06,9.60
2019,05,22,00,07,9.60
2019,05,22,00,08,9.60
2019,05,22,00,09,9.60
2019,05,22,00,10,9.60
2019,05,22,00,11,9.60
2019,05,22,00,12,9.60
2019,05,22,00,13,9.60
2019,05,22,00,14,9.60
2019,05,22,00,15,9.60
2019,05,22,00,16,9.50
2019,05,22,00,17,9.50
2019,05,22,00,18,9.50
2019,05,22,00,19,9.50
2019,05,22,00,20,9.50
2019,05,22,00,21,9.50
2019,05,22,00,22,9.40
2019,05,22,00,23,9.40
2019,05,22,00,24,9.40
2019,05,22,00,25,9.40
2019,05,22,00,26,9.40
2019,05,22,00,27,9.40
2019,05,22,00,28,9.40
2019,05,22,00,29,9.40
2019,05,22,00,30,9.40
2019,05,22,00,31,9.40
2019,05,22,00,32,9.40
2019,05,22,00,33,9.30
2019,05,22,00,34,9.30
2019,05,22,00,35,9.40
2019,05,22,00,36,9.40
2019,05,22,00,37,9.40
2019,05,22,00,38,9.40
2019,05,22,00,39,9.40
2019,05,22,00,40,9.40
2019,05,22,00,41,9.40
2019,05,22,00,42,9.40
2019,05,22,00,43,9.30
2019,05,22,00,44,9.30
2019,05,22,00,45,9.30
2019,05,22,00,46,9.40
2019,05,22,00,47,9.40
2019,05,22,00,48,9.40
2019,05,22,00,49,9.40
2019,05,22,00,50,9.40
2019,05,22,00,51,9.40
2019,05,22,00,52,9.40
2019,05,22,00,53,9.40
2019,05,22,00,54,9.40
2019,05,22,00,55,9.40
2019,05,22,00,56,9.40
2019,05,22,00,57,9.40
2019,05,22,00,58,9.40
2019,05,22,00,59,9.40
2019,05,22,01,00,9.40
2019,05,22,01,01,9.30
2019,05,22,01,02,9.30
2019,05,22,01,03,9.30
2019,05,22,01,04,9.30
2019,05,22,01,05,9.30
2019,05,22,01,06,9.30
2019,05,22,01,07,9.30
2019,05,22,01,08,9.30
2019,05,22,01,09,9.30
2019,05,22,01,10,9.30
2019,05,22,01,11,9.30
2019,05,22,01,12,9.30
2019,05,22,01,13,9.30
2019,05,22,01,14,9.30
2019,05,22,01,15,9.30
2019,05,22,01,16,9.30
2019,05,22,01,17,9.30
2019,05,22,01,18,9.30
2019,05,22,01,19,9.20
2019,05,22,01,20,9.20
2019,05,22,01,21,9.20
2019,05,22,01,22,9.20
2019,05,22,01,23,9.20
2019,05,22,01,24,9.20
2019,05,22,01,25,9.20
2019,05,22,01,26,9.20
2019,05,22,01,27,9.20
2019,05,22,01,28,9.20
2019,05,22,01,29,9.20
2019,05,22,01,30,9.20
2019,05,22,01,31,9.10
2019,05,22,01,32,9.10
2019,05,22,01,33,9.20
2019,05,22,01,34,9.10
2019,05,22,01,35,9.10
2019,05,22,01,36,9.10
2019,05,22,01,37,9.10
2019,05,22,01,38,9.10
2019,05,22,01,39,9.10
2019,05,22,01,40,9.10
2019,05,22,01,41,9.10
2019,05,22,01,42,9.10
2019,05,22,01,43,9.10
2019,05,22,01,44,9.10
2019,05,22,01,45,9.10
2019,05,22,01,46,9.10
2019,05,22,01,47,9.10
2019,05,22,01,48,9.10
2019,05,22,01,49,9.10
2019,05,22,01,50,9.00
2019,05,22,01,51,9.00
2019,05,22,01,52,9.00
2019,05,22,01,53,9.00
2019,05,22,01,54,9.00
2019,05,22,01,55,9.00
2019,05,22,01,56,9.00
2019,05,22,01,57,9.00
2019,05,22,01,58,8.90
2019,05,22,01,59,8.90
2019,05,22,02,00,8.90
2019,05,22,02,01,8.90
2019,05,22,02,02,8.90
2019,05,22,02,03,8.90
2019,05,22,02,04,9.00
2019,05,22,02,05,9.00
2019,05,22,02,06,8.90
2019,05,22,02,07,8.90
2019,05,22,02,08,8.90
2019,05,22,02,09,8.90
2019,05,22,02,10,8.90
2019,05,22,02,11,8.90
2019,05,22,02,12,8.90
2019,05,22,02,13,8.90
2019,05,22,02,14,8.90
2019,05,22,02,15,8.90
2019,05,22,02,16,8.90
2019,05,22,02,17,8.90
2019,05,22,02,18,8.90
2019,05,22,02,19,8.90
2019,05,22,02,20,8.90
2019,05,22,02,21,8.90
2019,05,22,02,22,8.90
2019,05,22,02,23,8.80
2019,05,22,02,24,8.90
2019,05,22,02,25,8.90
2019,05,22,02,26,8.90
2019,05,22,02,27,8.90
2019,05,22,02,28,8.90
2019,05,22,02,29,8.80
2019,05,22,02,30,8.80
2019,05,22,02,31,8.80
2019,05,22,02,32,8.80
2019,05,22,02,33,8.80
2019,05,22,02,34,8.70
2019,05,22,02,35,8.70
2019,05,22,02,36,8.70
2019,05,22,02,37,8.70
2019,05,22,02,38,8.70
2019,05,22,02,39,8.70
2019,05,22,02,40,8.70
2019,05,22,02,41,8.70
2019,05,22,02,42,8.70
2019,05,22,02,43,8.70
2019,05,22,02,44,8.70
2019,05,22,02,45,8.70
2019,05,22,02,46,8.70
2019,05,22,02,47,8.70
2019,05,22,02,48,8.70
2019,05,22,02,49,8.70
2019,05,22,02,50,8.60
2019,05,22,02,51,8.60
2019,05,22,02,52,8.60
2019,05,22,02,53,8.60
2019,05,22,02,54,8.70
2019,05,22,02,55,8.70
2019,05,22,02,56,8.70
2019,05,22,02,57,8.70
2019,05,22,02,58,8.70
2019,05,22,02,59,8.70
2019,05,22,03,00,8.70
2019,05,22,03,01,8.70
2019,05,22,03,02,8.60
2019,05,22,03,03,8.60
2019,05,22,03,04,8.60
2019,05,22,03,05,8.60
2019,05,22,03,06,8.60
2019,05,22,03,07,8.60
2019,05,22,03,08,8.60
2019,05,22,03,09,8.50
2019,05,22,03,10,8.50
2019,05,22,03,11,8.50
2019,05,22,03,12,8.50
2019,05,22,03,13,8.40
2019,05,22,03,14,8.40
2019,05,22,03,15,8.40
2019,05,22,03,16,8.40
2019,05,22,03,17,8.30
2019,05,22,03,18,8.30
2019,05,22,03,19,8.20
2019,05,22,03,20,8.20
2019,05,22,03,21,8.20
2019,05,22,03,22,8.20
2019,05,22,03,23,8.20
2019,05,22,03,24,8.20
2019,05,22,03,25,8.20
2019,05,22,03,26,8.20
2019,05,22,03,27,8.20
2019,05,22,03,28,8.20
2019,05,22,03,29,8.20
2019,05,22,03,30,8.20
2019,05,22,03,31,8.20
2019,05,22,03,32,8.20
2019,05,22,03,33,8.20
2019,05,22,03,34,8.20
2019,05,22,03,35,8.20
2019,05,22,03,36,8.20
2019,05,22,03,37,8.20
2019,05,22,03,38,8.20
2019,05,22,03,39,8.20
2019,05,22,03,40,8.10
2019,05,22,03,41,8.10
2019,05,22,03,42,8.10
2019,05,22,03,43,8.10
2019,05,22,03,44,8.10
2019,05,22,03,45,8.10
2019,05,22,03,46,8.10
2019,05,22,03,47,8.10
2019,05,22,03,48,8.10
2019,05,22,03,49,8.20
2019,05,22,03,50,8.10
2019,05,22,03,51,8.10
2019,05,22,03,52,8.10
2019,05,22,03,53,8.10
2019,05,22,03,54,8.10
2019,05,22,03,55,8.10
2019,05,22,03,56,8.00
2019,05,22,03,57,8.00
2019,05,22,03,58,8.00
2019,05,22,03,59,8.00
2019,05,22,04,00,8.00
2019,05,22,04,01,8.00
2019,05,22,04,02,7.90
2019,05,22,04,03,7.90
2019,05,22,04,04,7.90
2019,05,22,04,05,7.90
2019,05,22,04,06,7.90
2019,05,22,04,07,7.90
2019,05,22,04,08,7.90
2019,05,22,04,09,8.00
2019,05,22,04,10,7.90
2019,05,22,04,11,7.90
2019,05,22,04,12,7.90
2019,05,22,04,13,7.90
2019,05,22,04,14,7.90
2019,05,22,04,15,7.90
2019,05,22,04,16,7.90
2019,05,22,04,17,7.90
2019,05,22,04,18,7.90
2019,05,22,04,19,7.90
2019,05,22,04,20,7.80
2019,05,22,04,21,7.80
2019,05,22,04,22,7.80
2019,05,22,04,23,7.80
2019,05,22,04,24,7.80
2019,05,22,04,25,7.80
2019,05,22,04,26,7.80
2019,05,22,04,27,7.80
2019,05,22,04,28,7.80
2019,05,22,04,29,7.80
2019,05,22,04,30,7.80
2019,05,22,04,31,7.80
2019,05,22,04,32,7.80
2019,05,22,04,33,7.80
2019,05,22,04,34,7.70
2019,05,22,04,35,7.70
2019,05,22,04,36,7.70
2019,05,22,04,37,7.70
2019,05,22,04,38,7.70
2019,05,22,04,39,7.70
2019,05,22,04,40,7.60
2019,05,22,04,41,7.60
2019,05,22,04,42,7.60
2019,05,22,04,43,7.60
2019,05,22,04,44,7.60
2019,05,22,04,45,7.70
2019,05,22,04,46,7.70
2019,05,22,04,47,7.70
2019,05,22,04,48,7.70
2019,05,22,04,49,7.70
2019,05,22,04,50,7.70
2019,05,22,04,51,7.70
2019,05,22,04,52,7.70
2019,05,22,04,53,7.60
2019,05,22,04,54,7.60
2019,05,22,04,55,7.60
2019,05,22,04,56,7.60
2019,05,22,04,57,7.60
2019,05,22,04,58,7.60
2019,05,22,04,59,7.60
2019,05,22,05,00,7.60
2019,05,22,05,01,7.60
2019,05,22,05,02,7.60
2019,05,22,05,03,7.60
2019,05,22,05,04,7.60
2019,05,22,05,05,7.60
2019,05,22,05,06,7.60
2019,05,22,05,07,7.60
2019,05,22,05,08,7.60
2019,05,22,05,09,7.60
2019,05,22,05,10,7.60
2019,05,22,05,11,7.60
2019,05,22,05,12,7.60
2019,05,22,05,13,7.50
2019,05,22,05,14,7.50
2019,05,22,05,15,7.50
2019,05,22,05,16,7.40
2019,05,22,05,17,7.40
2019,05,22,05,18,7.40
2019,05,22,05,19,7.40
2019,05,22,05,20,7.50
2019,05,22,05,21,7.50
2019,05,22,05,22,7.60
2019,05,22,05,23,7.60
2019,05,22,05,24,7.60
2019,05,22,05,25,7.60
2019,05,22,05,26,7.60
2019,05,22,05,27,7.60
2019,05,22,05,28,7.60
2019,05,22,05,29,7.60
2019,05,22,05,30,7.60
2019,05,22,05,31,7.60
2019,05,22,05,32,7.60
2019,05,22,05,33,7.60
2019,05,22,05,34,7.60
2019,05,22,05,35,7.60
2019,05,22,05,36,7.60
2019,05,22,05,37,7.60
2019,05,22,05,38,7.60
2019,05,22,05,39,7.60
2019,05,22,05,40,7.60
2019,05,22,05,41,7.60
2019,05,22,05,42,7.60
2019,05,22,05,43,7.60
2019,05,22,05,44,7.60
2019,05,22,05,45,7.60
2019,05,22,05,46,7.60
2019,05,22,05,47,7.60
2019,05,22,05,48,7.60
2019,05,22,05,49,7.60
2019,05,22,05,50,7.60
2019,05,22,05,51,7.60
2019,05,22,05,52,7.60
2019,05,22,05,53,7.50
2019,05,22,05,54,7.50
2019,05,22,05,55,7.50
2019,05,22,05,56,7.50
2019,05,22,05,57,7.50
2019,05,22,05,58,7.50
2019,05,22,05,59,7.50
2019,05,22,06,00,7.50
2019,05,22,06,01,7.50
2019,05,22,06,02,7.40
2019,05,22,06,03,7.40
2019,05,22,06,04,7.40
2019,05,22,06,05,7.30
2019,05,22,06,06,7.30
2019,05,22,06,07,7.30
2019,05,22,06,08,7.30
2019,05,22,06,09,7.30
2019,05,22,06,10,7.30
2019,05,22,06,11,7.30
2019,05,22,06,12,7.30
2019,05,22,06,13,7.40
2019,05,22,06,14,7.40
2019,05,22,06,15,7.40
2019,05,22,06,16,7.40
2019,05,22,06,17,7.40
2019,05,22,06,18,7.40
2019,05,22,06,19,7.50
2019,05,22,06,20,7.50
2019,05,22,06,21,7.50
2019,05,22,06,22,7.60
2019,05,22,06,23,7.60
2019,05,22,06,24,7.70
2019,05,22,06,25,7.70
2019,05,22,06,26,7.70
2019,05,22,06,27,7.80
2019,05,22,06,28,7.80
2019,05,22,06,29,7.80
2019,05,22,06,30,7.80
2019,05,22,06,31,7.90
2019,05,22,06,32,7.90
2019,05,22,06,33,8.00
2019,05,22,06,34,8.00
2019,05,22,06,35,8.00
2019,05,22,06,36,8.10
2019,05,22,06,37,8.10
2019,05,22,06,38,8.20
2019,05,22,06,39,8.20
2019,05,22,06,40,8.30
2019,05,22,06,41,8.30
2019,05,22,06,42,8.30
2019,05,22,06,43,8.40
2019,05,22,06,44,8.40
2019,05,22,06,45,8.50
2019,05,22,06,46,8.50
2019,05,22,06,47,8.60
2019,05,22,06,48,8.70
2019,05,22,06,49,8.70
2019,05,22,06,50,8.70
2019,05,22,06,51,8.80
2019,05,22,06,52,8.90
2019,05,22,06,53,8.90
2019,05,22,06,54,9.00
2019,05,22,06,55,9.00
2019,05,22,06,56,9.10
2019,05,22,06,57,9.20
2019,05,22,06,58,9.20
2019,05,22,06,59,9.30
2019,05,22,07,00,9.30
2019,05,22,07,01,9.30
2019,05,22,07,02,9.30
2019,05,22,07,03,9.30
2019,05,22,07,04,9.30
2019,05,22,07,05,9.40
2019,05,22,07,06,9.50
2019,05,22,07,07,9.50
2019,05,22,07,08,9.60
2019,05,22,07,09,9.60
2019,05,22,07,10,9.70
2019,05,22,07,11,9.70
2019,05,22,07,12,9.80
2019,05,22,07,13,9.90
2019,05,22,07,14,10.00
2019,05,22,07,15,10.00
2019,05,22,07,16,10.10
2019,05,22,07,17,10.20
2019,05,22,07,18,10.30
2019,05,22,07,19,10.40
2019,05,22,07,20,10.40
2019,05,22,07,21,10.40
2019,05,22,07,22,10.40
2019,05,22,07,23,10.50
2019,05,22,07,24,10.50
2019,05,22,07,25,10.60
2019,05,22,07,26,10.60
2019,05,22,07,27,10.60
2019,05,22,07,28,10.70
2019,05,22,07,29,10.80
2019,05,22,07,30,10.80
2019,05,22,07,31,10.90
2019,05,22,07,32,11.00
2019,05,22,07,33,11.10
2019,05,22,07,34,11.20
2019,05,22,07,35,11.30
2019,05,22,07,36,11.30
2019,05,22,07,37,11.30
2019,05,22,07,38,11.40
2019,05,22,07,39,11.50
2019,05,22,07,40,11.70
2019,05,22,07,41,11.80
2019,05,22,07,42,11.90
2019,05,22,07,43,12.00
2019,05,22,07,44,12.20
2019,05,22,07,45,12.30
2019,05,22,07,46,12.40
2019,05,22,07,47,12.50
2019,05,22,07,48,12.60
2019,05,22,07,49,12.70
2019,05,22,07,50,12.80
2019,05,22,07,51,13.00
2019,05,22,07,52,13.10
2019,05,22,07,53,13.20
2019,05,22,07,54,13.30
2019,05,22,07,55,13.40
2019,05,22,07,56,13.60
2019,05,22,07,57,13.70
2019,05,22,07,58,13.80
2019,05,22,07,59,14.00
2019,05,22,08,00,14.10
2019,05,22,08,01,14.10
2019,05,22,08,02,14.20
2019,05,22,08,03,14.20
2019,05,22,08,04,14.30
2019,05,22,08,05,14.40
2019,05,22,08,06,14.50
2019,05,22,08,07,14.50
2019,05,22,08,08,14.60
2019,05,22,08,09,14.60
2019,05,22,08,10,14.60
2019,05,22,08,11,14.60
2019,05,22,08,12,14.60
2019,05,22,08,13,14.50
2019,05,22,08,14,14.50
2019,05,22,08,15,14.40
2019,05,22,08,16,14.40
2019,05,22,08,17,14.30
2019,05,22,08,18,14.30
2019,05,22,08,19,14.30
2019,05,22,08,20,14.20
2019,05,22,08,21,14.20
2019,05,22,08,22,14.10
2019,05,22,08,23,14.20
2019,05,22,08,24,14.20
2019,05,22,08,25,14.20
2019,05,22,08,26,14.30
2019,05,22,08,27,14.40
2019,05,22,08,28,14.50
2019,05,22,08,29,14.60
2019,05,22,08,30,14.60
2019,05,22,08,31,14.70
2019,05,22,08,32,14.70
2019,05,22,08,33,14.80
2019,05,22,08,34,14.80
2019,05,22,08,35,14.80
2019,05,22,08,36,14.90
2019,05,22,08,37,14.90
2019,05,22,08,38,14.90
2019,05,22,08,39,14.90
2019,05,22,08,40,15.00
2019,05,22,08,41,15.00
2019,05,22,08,42,15.00
2019,05,22,08,43,15.10
2019,05,22,08,44,15.10
2019,05,22,08,45,15.10
2019,05,22,08,46,15.20
2019,05,22,08,47,15.20
2019,05,22,08,48,15.30
2019,05,22,08,49,15.30
2019,05,22,08,50,15.30
2019,05,22,08,51,15.30
2019,05,22,08,52,15.40
2019,05,22,08,53,15.40
2019,05,22,08,54,15.50
2019,05,22,08,55,15.50
2019,05,22,08,56,15.60
2019,05,22,08,57,15.60
2019,05,22,08,58,15.60
2019,05,22,08,59,15.60
2019,05,22,09,00,15.60
2019,05,22,09,01,15.60
2019,05,22,09,02,15.60
2019,05,22,09,03,15.50
2019,05,22,09,04,15.50
2019,05,22,09,05,15.50
2019,05,22,09,06,15.50
2019,05,22,09,07,15.50
2019,05,22,09,08,15.50
2019,05,22,09,09,15.50
2019,05,22,09,10,15.50
2019,05,22,09,11,15.60
2019,05,22,09,12,15.60
2019,05,22,09,13,15.60
2019,05,22,09,14,15.60
2019,05,22,09,15,15.70
2019,05,22,09,16,15.70
2019,05,22,09,17,15.70
2019,05,22,09,18,15.70
2019,05,22,09,19,15.70
2019,05,22,09,20,15.70
2019,05,22,09,21,15.70
2019,05,22,09,22,15.70
2019,05,22,09,23,15.70
2019,05,22,09,24,15.70
2019,05,22,09,25,15.70
2019,05,22,09,26,15.80
2019,05,22,09,27,15.80
2019,05,22,09,28,15.80
2019,05,22,09,29,15.70
2019,05,22,09,30,15.60
2019,05,22,09,31,15.60
2019,05,22,09,32,15.60
2019,05,22,09,33,15.50
2019,05,22,09,34,15.50
2019,05,22,09,35,15.50
2019,05,22,09,36,15.50
2019,05,22,09,37,15.50
2019,05,22,09,38,15.50
2019,05,22,09,39,15.50
2019,05,22,09,40,15.50
2019,05,22,09,41,15.40
2019,05,22,09,42,15.40
2019,05,22,09,43,15.40
2019,05,22,09,44,15.40
2019,05,22,09,45,15.40
2019,05,22,09,46,15.40
2019,05,22,09,47,15.40
2019,05,22,09,48,15.40
2019,05,22,09,49,15.50
2019,05,22,09,50,15.50
2019,05,22,09,51,15.60
2019,05,22,09,52,15.60
2019,05,22,09,53,15.60
2019,05,22,09,54,15.60
2019,05,22,09,55,15.60
2019,05,22,09,56,15.60
2019,05,22,09,57,15.50
2019,05,22,09,58,15.50
2019,05,22,09,59,15.50
2019,05,22,10,00,15.50
2019,05,22,10,01,15.50
2019,05,22,10,02,15.40
2019,05,22,10,03,15.40
2019,05,22,10,04,15.40
2019,05,22,10,05,15.40
2019,05,22,10,06,15.50
2019,05,22,10,07,15.50
2019,05,22,10,08,15.60
2019,05,22,10,09,15.70
2019,05,22,10,10,15.70
2019,05,22,10,11,15.80
2019,05,22,10,12,15.80
2019,05,22,10,13,15.80
2019,05,22,10,14,15.80
2019,05,22,10,15,15.80
2019,05,22,10,16,15.90
2019,05,22,10,17,15.90
2019,05,22,10,18,16.00
2019,05,22,10,19,16.10
2019,05,22,10,20,16.10
2019,05,22,10,21,16.20
2019,05,22,10,22,16.20
2019,05,22,10,23,16.30
2019,05,22,10,24,16.30
2019,05,22,10,25,16.40
2019,05,22,10,26,16.40
2019,05,22,10,27,16.50
2019,05,22,10,28,16.60
2019,05,22,10,29,16.60
2019,05,22,10,30,16.70
2019,05,22,10,31,16.80
2019,05,22,10,32,16.80
2019,05,22,10,33,16.80
2019,05,22,10,34,16.90
2019,05,22,10,35,16.90
2019,05,22,10,36,16.90
2019,05,22,10,37,16.90
2019,05,22,10,38,16.90
2019,05,22,10,39,16.80
2019,05,22,10,40,16.70
2019,05,22,10,41,16.60
2019,05,22,10,42,16.50
2019,05,22,10,43,16.50
2019,05,22,10,44,16.60
2019,05,22,10,45,16.60
2019,05,22,10,46,16.70
2019,05,22,10,47,16.60
2019,05,22,10,48,16.60
2019,05,22,10,49,16.60
2019,05,22,10,50,16.50
2019,05,22,10,51,16.50
2019,05,22,10,52,16.50
2019,05,22,10,53,16.50
2019,05,22,10,54,16.60
2019,05,22,10,55,16.60
2019,05,22,10,56,16.60
2019,05,22,10,57,16.60
2019,05,22,10,58,16.60
2019,05,22,10,59,16.60
2019,05,22,11,00,16.60
2019,05,22,11,01,16.50
2019,05,22,11,02,16.40
2019,05,22,11,03,16.30
2019,05,22,11,04,16.20
2019,05,22,11,05,16.10
2019,05,22,11,06,16.00
2019,05,22,11,07,15.90
2019,05,22,11,08,15.80
2019,05,22,11,09,15.80
2019,05,22,11,10,15.80
2019,05,22,11,11,15.80
2019,05,22,11,12,15.70
2019,05,22,11,13,15.80
2019,05,22,11,14,15.80
2019,05,22,11,15,15.90
2019,05,22,11,16,16.00
2019,05,22,11,17,16.10
2019,05,22,11,18,16.20
2019,05,22,11,19,16.30
2019,05,22,11,20,16.40
2019,05,22,11,21,16.50
2019,05,22,11,22,16.60
2019,05,22,11,23,16.60
2019,05,22,11,24,16.60
2019,05,22,11,25,16.60
2019,05,22,11,26,16.60
2019,05,22,11,27,16.60
2019,05,22,11,28,16.60
2019,05,22,11,29,16.60
2019,05,22,11,30,16.70
2019,05,22,11,31,16.70
2019,05,22,11,32,16.70
2019,05,22,11,33,16.70
2019,05,22,11,34,16.70
2019,05,22,11,35,16.70
2019,05,22,11,36,16.70
2019,05,22,11,37,16.80
2019,05,22,11,38,16.80
2019,05,22,11,39,16.80
2019,05,22,11,40,16.80
2019,05,22,11,41,16.80
2019,05,22,11,42,16.80
2019,05,22,11,43,16.80
2019,05,22,11,44,16.80
2019,05,22,11,45,16.80
2019,05,22,11,46,16.70
2019,05,22,11,47,16.70
2019,05,22,11,48,16.60
2019,05,22,11,49,16.60
2019,05,22,11,50,16.60
2019,05,22,11,51,16.60
2019,05,22,11,52,16.70
2019,05,22,11,53,16.70
2019,05,22,11,54,16.80
2019,05,22,11,55,16.90
2019,05,22,11,56,16.90
2019,05,22,11,57,17.00
2019,05,22,11,58,17.00
2019,05,22,11,59,17.10
2019,05,22,12,00,17.10
2019,05,22,12,01,17.10
2019,05,22,12,02,17.10
2019,05,22,12,03,17.10
2019,05,22,12,04,17.10
2019,05,22,12,05,17.00
2019,05,22,12,06,17.00
2019,05,22,12,07,16.90
2019,05,22,12,08,16.90
2019,05,22,12,09,17.00
2019,05,22,12,10,17.00
2019,05,22,12,11,17.10
2019,05,22,12,12,17.00
2019,05,22,12,13,16.90
2019,05,22,12,14,16.80
2019,05,22,12,15,16.70
2019,05,22,12,16,16.70
2019,05,22,12,17,16.70
2019,05,22,12,18,16.80
2019,05,22,12,19,16.80
2019,05,22,12,20,16.90
2019,05,22,12,21,16.90
2019,05,22,12,22,16.90
2019,05,22,12,23,16.90
2019,05,22,12,24,16.90
2019,05,22,12,25,16.90
2019,05,22,12,26,16.90
2019,05,22,12,27,16.90
2019,05,22,12,28,16.80
2019,05,22,12,29,16.80
2019,05,22,12,30,16.80
2019,05,22,12,31,16.90
2019,05,22,12,32,16.90
2019,05,22,12,33,16.90
2019,05,22,12,34,17.00
2019,05,22,12,35,17.10
2019,05,22,12,36,17.10
2019,05,22,12,37,17.20
2019,05,22,12,38,17.20
2019,05,22,12,39,17.20
2019,05,22,12,40,17.30
2019,05,22,12,41,17.50
2019,05,22,12,42,17.60
2019,05,22,12,43,17.70
2019,05,22,12,44,17.80
2019,05,22,12,45,17.90
2019,05,22,12,46,18.00
2019,05,22,12,47,18.00
2019,05,22,12,48,18.10
2019,05,22,12,49,18.20
2019,05,22,12,50,18.20
2019,05,22,12,51,18.20
2019,05,22,12,52,18.20
2019,05,22,12,53,18.20
2019,05,22,12,54,18.20
2019,05,22,12,55,18.20
2019,05,22,12,56,18.20
2019,05,22,12,57,18.10
2019,05,22,12,58,18.00
2019,05,22,12,59,17.90
2019,05,22,13,00,17.80
2019,05,22,13,01,17.60
2019,05,22,13,02,17.60
2019,05,22,13,03,17.60
2019,05,22,13,04,17.60
2019,05,22,13,05,17.70
2019,05,22,13,06,17.70
2019,05,22,13,07,17.80
2019,05,22,13,08,17.80
2019,05,22,13,09,18.00
2019,05,22,13,10,18.10
2019,05,22,13,11,18.20
2019,05,22,13,12,18.30
2019,05,22,13,13,18.40
2019,05,22,13,14,18.40
2019,05,22,13,15,18.40
2019,05,22,13,16,18.40
2019,05,22,13,17,18.40
2019,05,22,13,18,18.50
2019,05,22,13,19,18.50
2019,05,22,13,20,18.40
2019,05,22,13,21,18.40
2019,05,22,13,22,18.40
2019,05,22,13,23,18.30
2019,05,22,13,24,18.30
2019,05,22,13,25,18.10
2019,05,22,13,26,18.00
2019,05,22,13,27,17.90
2019,05,22,13,28,17.80
2019,05,22,13,29,17.80
2019,05,22,13,30,17.80
2019,05,22,13,31,17.70
2019,05,22,13,32,17.70
2019,05,22,13,33,17.60
2019,05,22,13,34,17.70
2019,05,22,13,35,17.70
2019,05,22,13,36,17.80
2019,05,22,13,37,17.90
2019,05,22,13,38,18.00
2019,05,22,13,39,18.10
2019,05,22,13,40,18.10
2019,05,22,13,41,18.20
2019,05,22,13,42,18.20
2019,05,22,13,43,18.20
2019,05,22,13,44,18.20
2019,05,22,13,45,18.20
2019,05,22,13,46,18.20
2019,05,22,13,47,18.30
2019,05,22,13,48,18.40
2019,05,22,13,49,18.50
2019,05,22,13,50,18.50
2019,05,22,13,51,18.50
2019,05,22,13,52,18.40
2019,05,22,13,53,18.40
2019,05,22,13,54,18.30
2019,05,22,13,55,18.30
2019,05,22,13,56,18.30
2019,05,22,13,57,18.30
2019,05,22,13,58,18.30
2019,05,22,13,59,18.30
2019,05,22,14,00,18.30
2019,05,22,14,01,18.30
2019,05,22,14,02,18.30
2019,05,22,14,03,18.20
2019,05,22,14,04,18.10
2019,05,22,14,05,18.10
2019,05,22,14,06,18.10
2019,05,22,14,07,18.10
2019,05,22,14,08,18.00
2019,05,22,14,09,18.00
2019,05,22,14,10,18.10
2019,05,22,14,11,18.10
2019,05,22,14,12,18.10
2019,05,22,14,13,18.10
2019,05,22,14,14,18.20
2019,05,22,14,15,18.20
2019,05,22,14,16,18.30
2019,05,22,14,17,18.30
2019,05,22,14,18,18.40
2019,05,22,14,19,18.40
2019,05,22,14,20,18.40
2019,05,22,14,21,18.40
2019,05,22,14,22,18.30
2019,05,22,14,23,18.30
2019,05,22,14,24,18.30
2019,05,22,14,25,18.30
2019,05,22,14,26,18.30
2019,05,22,14,27,18.20
2019,05,22,14,28,18.10
2019,05,22,14,29,18.00
2019,05,22,14,30,17.90
2019,05,22,14,31,17.90
2019,05,22,14,32,17.90
2019,05,22,14,33,18.00
2019,05,22,14,34,18.00
2019,05,22,14,35,18.10
2019,05,22,14,36,18.10
2019,05,22,14,37,18.20
2019,05,22,14,38,18.40
2019,05,22,14,39,18.40
2019,05,22,14,40,18.50
2019,05,22,14,41,18.50
2019,05,22,14,42,18.50
2019,05,22,14,43,18.60
2019,05,22,14,44,18.70
2019,05,22,14,45,18.80
2019,05,22,14,46,18.90
2019,05,22,14,47,18.90
2019,05,22,14,48,18.90
2019,05,22,14,49,18.90
2019,05,22,14,50,18.90
2019,05,22,14,51,18.90
2019,05,22,14,52,19.00
2019,05,22,14,53,19.00
2019,05,22,14,54,19.00
2019,05,22,14,55,19.10
2019,05,22,14,56,19.20
2019,05,22,14,57,19.30
2019,05,22,14,58,19.40
2019,05,22,14,59,19.50
2019,05,22,15,00,19.60
2019,05,22,15,01,19.70
2019,05,22,15,02,19.70
2019,05,22,15,03,19.70
2019,05,22,15,04,19.70
2019,05,22,15,05,19.80
2019,05,22,15,06,19.80
2019,05,22,15,07,19.90
2019,05,22,15,08,19.90
2019,05,22,15,09,20.00
2019,05,22,15,10,20.00
2019,05,22,15,11,20.00
2019,05,22,15,12,20.00
2019,05,22,15,13,20.10
2019,05,22,15,14,20.20
2019,05,22,15,15,20.30
2019,05,22,15,16,20.30
2019,05,22,15,17,20.40
2019,05,22,15,18,20.40
2019,05,22,15,19,20.40
2019,05,22,15,20,20.40
2019,05,22,15,21,20.30
2019,05,22,15,22,20.30
2019,05,22,15,23,20.20
2019,05,22,15,24,20.20
2019,05,22,15,25,20.20
2019,05,22,15,26,20.20
2019,05,22,15,27,20.10
2019,05,22,15,28,20.10
2019,05,22,15,29,20.10
2019,05,22,15,30,20.10
2019,05,22,15,31,20.10
2019,05,22,15,32,20.10
2019,05,22,15,33,20.10
2019,05,22,15,34,20.20
2019,05,22,15,35,20.20
2019,05,22,15,36,20.20
2019,05,22,15,37,20.20
2019,05,22,15,38,20.10
2019,05,22,15,39,20.20
2019,05,22,15,40,20.20
2019,05,22,15,41,20.20
2019,05,22,15,42,20.20
2019,05,22,15,43,20.10
2019,05,22,15,44,20.10
2019,05,22,15,45,20.00
2019,05,22,15,46,20.00
2019,05,22,15,47,19.90
2019,05,22,15,48,19.90
2019,05,22,15,49,19.90
2019,05,22,15,50,19.90
2019,05,22,15,51,20.00
2019,05,22,15,52,20.00
2019,05,22,15,53,20.00
2019,05,22,15,54,19.80
2019,05,22,15,55,19.70
2019,05,22,15,56,19.60
2019,05,22,15,57,19.50
2019,05,22,15,58,19.50
2019,05,22,15,59,19.50
2019,05,22,16,00,19.50
2019,05,22,16,01,19.40
2019,05,22,16,02,19.40
2019,05,22,16,03,19.30
2019,05,22,16,04,19.40
2019,05,22,16,05,19.40
2019,05,22,16,06,19.40
2019,05,22,16,07,19.40
2019,05,22,16,08,19.40
2019,05,22,16,09,19.50
2019,05,22,16,10,19.50
2019,05,22,16,11,19.60
2019,05,22,16,12,19.60
2019,05,22,16,13,19.70
2019,05,22,16,14,19.80
2019,05,22,16,15,19.80
2019,05,22,16,16,19.90
2019,05,22,16,17,19.80
2019,05,22,16,18,19.80
2019,05,22,16,19,19.80
2019,05,22,16,20,19.80
2019,05,22,16,21,19.70
2019,05,22,16,22,19.70
2019,05,22,16,23,19.60
2019,05,22,16,24,19.60
2019,05,22,16,25,19.50
2019,05,22,16,26,19.50
2019,05,22,16,27,19.60
2019,05,22,16,28,19.60
2019,05,22,16,29,19.60
2019,05,22,16,30,19.70
2019,05,22,16,31,19.80
2019,05,22,16,32,19.90
2019,05,22,16,33,19.90
2019,05,22,16,34,19.90
2019,05,22,16,35,20.00
2019,05,22,16,36,19.90
2019,05,22,16,37,20.00
2019,05,22,16,38,20.10
2019,05,22,16,39,20.10
2019,05,22,16,40,20.20
2019,05,22,16,41,20.30
2019,05,22,16,42,20.50
2019,05,22,16,43,20.60
2019,05,22,16,44,20.50
2019,05,22,16,45,20.50
2019,05,22,16,46,20.40
2019,05,22,16,47,20.40
2019,05,22,16,48,20.40
2019,05,22,16,49,20.40
2019,05,22,16,50,20.40
2019,05,22,16,51,20.30
2019,05,22,16,52,20.30
2019,05,22,16,53,20.30
2019,05,22,16,54,20.20
2019,05,22,16,55,20.20
2019,05,22,16,56,20.10
2019,05,22,16,57,20.10
2019,05,22,16,58,20.10
2019,05,22,16,59,20.10
2019,05,22,17,00,20.10
2019,05,22,17,01,20.10
2019,05,22,17,02,20.10
2019,05,22,17,03,20.30
2019,05,22,17,04,20.40
2019,05,22,17,05,20.60
2019,05,22,17,06,20.70
2019,05,22,17,07,20.80
2019,05,22,17,08,20.80
2019,05,22,17,09,21.00
2019,05,22,17,10,21.10
2019,05,22,17,11,21.20
2019,05,22,17,12,21.30
2019,05,22,17,13,21.40
2019,05,22,17,14,21.50
2019,05,22,17,15,21.60
2019,05,22,17,16,21.70
2019,05,22,17,17,21.70
2019,05,22,17,18,21.70
2019,05,22,17,19,21.70
2019,05,22,17,20,21.70
2019,05,22,17,21,21.60
2019,05,22,17,22,21.60
2019,05,22,17,23,21.60
2019,05,22,17,24,21.60
2019,05,22,17,25,21.60
2019,05,22,17,26,21.60
2019,05,22,17,27,21.60
2019,05,22,17,28,21.60
2019,05,22,17,29,21.60
2019,05,22,17,30,21.60
2019,05,22,17,31,21.50
2019,05,22,17,32,21.50
2019,05,22,17,33,21.40
2019,05,22,17,34,21.40
2019,05,22,17,35,21.30
2019,05,22,17,36,21.30
2019,05,22,17,37,21.30
2019,05,22,17,38,21.30